www.pogodaiklimat.ru

Погода и климат >> Архив погоды >> Украина >> Новоград-Волынский


ПОГОДА в Новограде-Волынском

  • Прогноз погоды в Новограде-Волынском
  • Монитор погоды в Новограде-Волынском

АРХИВ ПОГОДЫ в Новограде-Волынском

Время (UTC), дата Ветер
(напр.,м/с)
 
Видим.   Явления Облачность Т
(С)
Тd
(С)
f
(%)
Тe
(С)
Тes
(С)
Комфортность P
(гПа)
Po
(гПа)
Тmin
(С)
Tmax
(С)
R
(мм)
R24
(мм)
S
(см)
12 12.06 В 2 10 км 3/3 1000 м
[Cu med, cong]
+30.1 +16.1 43 +33 +44 душно 1016.0 991.5
15 12.06 В 2 10 км 3/3 1000 м
[Cu hum]
+30.1 +14.2 38 +32 +36 жарко 1014.0 989.5
18 12.06 штиль 0 10 км 3/0
[Ci sp]
+27.3 +18.6 59 +32 +32 очень
душно
1015.0 990.3 +30.6
21 12.06 штиль 0 10 км ясно +21.9 +17.5 76 +26 +26 душно 1016.0 990.8
00 13.06 штиль 0 10 км ясно +19.8 +16.8 83 +22 +22 комфорт 1016.0 990.6
03 13.06 штиль 0 10 км ясно +18.6 +16.7 89 +19 +20 1017.0 991.5
06 13.06 ЮВ 1 10 км ясно +26.2 +18.1 61 +31 +39 очень
душно
1017.0 992.1 +18.5
09 13.06 В 2 10 км 3/3 1000 м
[Cu med, cong]
+29.5 +15.2 42 +32 +44 душно 1017.0 992.4
12 13.06 В 2 10 км 5/5 1000 м
[Cu med, cong]
+31.0 +13.7 35 +32 +38 жарко 1017.0 992.5
15 13.06 ЮВ 1 10 км 4/4 1000 м
[Cu hum]
+30.8 +15.2 39 +33 +37 душно 1016.0 991.5
18 13.06 Ю 2 10 км гроза без осадков 10/10 630 м
[Cb cap]
+24.6 +14.7 54 +27 +27 жарко 1017.0 992.0 +31.5
21 13.06 штиль 0 10 км {гроза} 3/0
[Ac trans]
+20.6 +15.8 74 +23 +23 комфорт 1018.0 992.6
00 14.06 штиль 0 10 км {гроза} ясно +18.7 +15.9 84 +20 +20 1019.0 993.4
03 14.06 штиль 0 10 км 6/0
[Ac trans Ci sp]
+17.0 +15.0 88 +17 +17 1019.0 993.3
06 14.06 Ю 1 10 км 5/0
[Ac trans Ci sp]
+23.3 +16.6 66 +28 +32 душно 1019.0 993.8 +16.9
09 14.06 Ю 1 10 км 3/0
[Ci sp]
+27.7 +13.6 42 +30 +43 жарко 1019.0 994.2
12 14.06 ЮВ 2 10 км 3/0
[Ci sp]
+29.8 +13.5 37 +31 +42 жарко 1018.0 993.4
15 14.06 ЮВ 2 10 км ясно +29.9 +13.2 36 +31 +36 жарко 1018.0 993.4
18 14.06 штиль 0 10 км 4/0
[Ac trans]
+27.8 +16.7 51 +31 +31 душно 1018.0 993.2 +30.5
21 14.06 штиль 0 10 км 8/0
[Ac trans]
+23.2 +15.8 63 +28 +28 душно 1018.0 992.8
00 15.06 штиль 0 10 км ясно +19.6 +15.7 78 +21 +21 комфорт 1018.0 992.5
03 15.06 штиль 0 10 км ясно +18.3 +15.4 83 +19 +19 1018.0 992.4
06 15.06 СВ 1 10 км ясно +24.9 +17.4 63 +29 +38 душно 1018.0 993.0 +18.2
09 15.06 С 1 10 км ясно +28.3 +16.2 48 +32 +51 опасность
солнечного
удара
1017.0 992.3
12 15.06 штиль 0 10 км 4/4 1000 м
[Cu med, cong]
+28.8 +15.0 43 +31 +46 жарко 1015.0 990.4
15 15.06 З 1 10 км 3/3 1000 м
[Cu med, cong]
+31.0 +15.0 38 +33 +37 душно 1014.0 989.6
18 15.06 штиль 0 10 км ясно +28.7 +17.5 51 +33 +33 очень
душно
1014.0 989.4 +31.3
21 15.06 штиль 0 10 км ясно +23.4 +19.1 77 +30 +30 очень
душно
1014.0 989.0
00 16.06 штиль 0 10 км ясно +20.7 +17.3 81 +24 +24 комфорт 1014.0 988.7
03 16.06 штиль 0 10 км ясно +19.1 +17.2 89 +21 +21 комфорт 1014.0 988.6
06 16.06 штиль 0 10 км ясно +26.3 +19.2 65 +32 +42 очень
душно
1013.0 988.3 +19.0
09 16.06 З 1 10 км 3/3 1000 м
[Cu med, cong]
+30.1 +18.5 50 +35 +49 очень
душно
1013.0 988.6
12 16.06 ЮВ 1 10 км 8/5 600 м
[Cu med, cong Ci sp]
+31.3 +17.2 43 +35 +35 очень
душно
1013.0 988.6
15 16.06 ЮВ 1 10 км 8/5 600 м
[Cu med, cong Ci sp]
+31.1 +16.7 42 +34 +34 душно 1012.0 987.6
18 16.06 ЮВ 1 10 км 8/0
[Ci sp]
+26.9 +19.2 63 +32 +32 очень
душно
1013.0 988.3 +32.3
21 16.06 Ю 1 10 км 6/0
[Ci sp]
+24.5 +18.9 71 +29 +29 душно 1014.0 989.1
00 17.06 СВ 2 10 км 6/0
[Ci sp]
+21.6 +17.4 77 +26 +26 душно 1014.0 988.8
03 17.06 штиль 0 10 км 8/0
[Ci sp]
+19.4 +16.8 85 +21 +21 комфорт 1015.0 989.6
06 17.06 СЗ 1 10 км 8/0
[Ci sp]
+22.9 +17.4 71 +28 +28 душно 1015.0 989.9 +19.3
09 17.06 СЗ 2 10 км ясно +26.9 +16.2 52 +30 +47 душно 1015.0 990.2
12 17.06 СЗ 3 10 км 5/5 1000 м
[Cu med, cong]
+29.3 +17.1 48 +33 +38 душно 1015.0 990.4
15 17.06 З 3 10 км 10 баллов +26.3 +19.2 65 +32 +32 очень
душно
1015.0 990.2
18 17.06 СЗ 1 10 км 10/0
[Ac und]
+23.9 +17.4 67 +28 +28 душно 1016.0 991.0 +29.4
21 17.06 СЗ 1 10 км 10 баллов +20.2 +16.0 77 +24 +24 комфорт 1018.0 992.6
00 18.06 штиль 0 10 км 6/0
[Ac trans]
+17.8 +14.7 82 +18 +18 1019.0 993.3
03 18.06 штиль 0 10 км ясно +15.6 +13.8 89 +15 +16 1019.0 993.1
06 18.06 СЗ 1 10 км 4/3 1000 м
[Cu med, cong Ac trans]
+20.4 +15.8 75 +24 +30 комфорт 1019.0 993.6 +15.5
09 18.06 СЗ 1 10 км 8/8 930 м
[Cu med, cong]
+23.3 +15.6 62 +28 +28 душно 1019.0 993.8
12 18.06 СЗ 1 10 км 8/8 900 м
[Cu med, cong]
+25.8 +15.2 52 +29 +29 душно 1018.0 993.0
15 18.06 С 1 10 км 6/6 930 м
[Cu med, cong]
+26.3 +14.4 48 +29 +31 жарко 1017.0 992.1
18 18.06 СЗ 1 10 км 4/0
[Ac trans]
+24.4 +16.6 62 +28 +28 душно 1017.0 992.0 +26.7
21 18.06 штиль 0 10 км ясно +19.2 +14.7 75 +20 +20 1018.0 992.5
00 19.06 штиль 0 10 км ясно +17.3 +14.0 81 +17 +17 1018.0 992.3
03 19.06 штиль 0 10 км ясно +16.6 +14.2 86 +16 +17 1018.0 992.2
06 19.06 С 1 10 км ясно +23.5 +15.8 62 +27 +35 душно 1017.0 991.9 +16.3

 

Местоположение метеостанции Новоград-Волынский (Житомирская область, Украина): широта 50.60 долгота 27.63 высота над уровнем моря 218 м.

В архиве по умолчанию представлена погода в Новограде-Волынском за последнюю неделю. Архивные данные за месяц целиком и за предыдущие месяцы, начиная с января 2011 года, Вы можете получить, выбрав интересующий диапазон дат из раскрывающегося списка и нажав кнопку "Ввод!".


*Определитесь, кто Вы:
робот инопланетянин человек

Внимание! Время в таблицах - всемирное. Для получения местного времени необходимо прибавить поправку, которая равна 2 ч.

Смотрите также архив погоды в соседних городах и на ближайших метеорологических станциях:

Погода в Шепетовке (Хмельницкая область, Украина) (64 км)
Погода в Олевске (Житомирская область, Украина) (69 км)
Погода в Коростени (Житомирская область, Украина) (82 км)
Погода в Житомире (Житомирская область, Украина) (88 км)
Погода в Сарнах (Ровенская область, Украина) (104 км)
Погода в Ровно (Ровенская область, Украина) (106 км)
Погода в Овруче (Житомирская область, Украина) (114 км)
Погода в Ямполе (Хмельницкая область, Украина) (121 км)
Погода в Белополе (Винницкая область, Украина) (123 км)
Погода в Дубно (Ровенская область, Украина) (134 км)

Пояснения к столбцам:

Ветер - указаны скорость ветра в м/с - средняя за 10 мин, порывы в срок и между сроками (в фигурных скобках) и направление, откуда дует ветер: С - северный, СВ - северо-восточный, В - восточный, ЮВ - юго-восточный, Ю - южный, ЮЗ - юго-западный, З - западный, СЗ - северо-западный.
Видимость - горизонтальная дальность видимости в метрах или километрах. При видимости от 1 до 10 км при отсутствии осадков обычно наблюдается дымка, при ухудшении видимости до 1 км и менее - туман. В сухую погоду видимость может ухудшаться дымом, пылью или мглою.
Явления - указаны атмосферные явления, наблюдавшиеся в срок или в последний час перед сроком; фигурными скобками обозначены явления, наблюдавшиеся между сроками (за 1-3 часа до срока); квадратными скобками обозначены град или гололедные отложения с указанием их диаметра в мм.
Облачность - указаны через наклонную черту общая и нижняя облачность в баллах и высота нижней границы облаков в метрах; квадратными скобками обозначены формы облаков: Ci - перистые, Cs - перисто-слоистые, Cc - перисто-кучевые, Ac - высококучевые, As - высокослоистые, Sc - слоисто-кучевые, Ns - слоисто-дождевые, Cu - кучевые, Cb - кучево-дождевые. Подробнее классификацию облаков см. в Атласе облаков (PDF).
T - Температура воздуха - температура, измеренная на высоте 2 м над землей.
Td - Температура точки росы - температура, при понижении до которой содержащийся в воздухе водяной пар достигнет насыщения.
f - Относительная влажность воздуха - влажноcть воздуха, измеренная на высоте 2 м над землей.
Te - Эффективная температура - температура, которую ощущает одетый по сезону человек в тени. Характеристика душности погоды. При расчете учитывается влияние влажности воздуха и скорости ветра на теплоощущения человека.
Tes - Эффективная температура на солнце - температура, которую ощущает человек, с поправкой на солнечный нагрев. Характеристика знойности погоды. Зависит от высоты солнца над горизонтом, облачности и скорости ветра. Ночью, в пасмурную погоду, а также при ветре 12 м/с и более поправка равна нулю.
P - Атмосферное давление - приведенное к уровню моря атмосферное давление.
Po - Атмосферное давление - измеренное на уровне метеостанции атмосферное давление.
Tmin - Минимальная температура - минимум температуры воздуха на высоте 2 м над землей.
Tmax - Максимальная температура - максимум температуры воздуха на высоте 2 м над землей.
R - Количество осадков - Количество выпавших осадков за период времени, мм. При наведении курсора мыши на число - период времени, за который выпало указанное количество осадков.
R24 - Количество осадков - Количество выпавших осадков за 24 часа, мм.
S - Снежный покров - Высота снежного покрова, см. При наведении курсора мыши на число - состояние снежного покрова и степень покрытия местности в баллах.